Regional Weather Roundup
Issued by NWS Green Bay, WI

Home | Current Version | Previous Version | Text Only | Print | Product List | Glossary On
Versions: 1 2 3 4 5 6 7 8 9 10 11 12 13 14 15 16 17 18 19 20 21 22 23 24 25 26 27 28 29 30 31 32 33 34 35 36 37 38 39 40 41 42 43 44 45 46 47 48 49 50
000
ASUS43 KGRB 260110
RWRGRB

NORTH-CENTRAL AND NORTHEAST WISCONSIN REGIONAL WEATHER ROUNDUP
NATIONAL WEATHER SERVICE GREEN BAY WI
700 PM CST SUN JAN 25 2015

WIZ005-009-010>012-018-019-260200-
NORTH CENTRAL WISCONSIN

CITY           SKY/WX    TMP DP  RH WIND       PRES   REMARKS
IRONWOOD       MOCLDY    10   9  92 CALM      30.02R
MANITOWISH WTR CLOUDY     8   2  78 CALM      30.02R
ARBOR VITAE    MOCLDY    14   7  73 CALM      30.02R
EAGLE RIVER    MOCLDY    14   4  66 CALM      30.00R
LAND O LAKES   MOCLDY    11   6  81 CALM      30.02R
RHINELANDER    CLOUDY    14   5  67 CALM      30.00R
PHILLIPS       CLOUDY    12   6  75 CALM      30.02R
ANTIGO         CLOUDY    13   5  69 CALM      30.02R
TOMAHAWK       CLOUDY    15   7  72 CALM      30.02R
MERRILL        CLOUDY    18   8  64 CALM      30.03R
$$

WIZ013-073-260200-
NORTHEAST WISCONSIN

CITY           SKY/WX    TMP DP  RH WIND       PRES   REMARKS
IRON MOUNTAIN  PTCLDY     6   2  83 CALM      30.03R
MARINETTE      CLEAR     10   7  85 CALM      30.07R
OCONTO         CLEAR     11   7  83 MISG      30.08S
$$

WIZ017-030-035>037-045-260200-
CENTRAL WISCONSIN

CITY           SKY/WX    TMP DP  RH WIND       PRES   REMARKS
MEDFORD        CLOUDY    16   8  70 CALM      30.01S
WAUSAU         CLOUDY    18   6  59 CALM      30.02R
MOSINEE        CLOUDY    18   7  62 N3        30.04
MARSHFIELD     CLOUDY    20   9  62 CALM      30.03R
WISC RAPIDS    CLOUDY    18   6  59 SE5       30.05R
STEVENS POINT  CLOUDY    11   4  73 CALM      30.04R
WAUPACA        PTCLDY    17   8  67 CALM      30.06S
SHAWANO        CLOUDY    19  10  67 SE7       30.06S WCI   9
CLINTONVILLE   CLOUDY    16   9  73 CALM      30.06S
$$

WIZ038-039-048-051-260200-
FOX VALLEY

CITY           SKY/WX    TMP DP  RH WIND       PRES   REMARKS
NWS GREEN BAY  PTCLDY    15   8  73 CALM      30.08R
APPLETON       PTCLDY    18   7  62 E7        30.06R WCI   8
OSHKOSH        CLEAR     17   8  67 NE10      30.07R WCI   5
FOND DU LAC    CLEAR     17   9  70 N10       30.06R WCI   5
$$

WIZ022-050-052-260200-
EAST CENTRAL WISCONSIN

CITY           SKY/WX    TMP DP  RH WIND       PRES   REMARKS
STURGEON BAY   CLEAR     12   5  73 CALM      30.09R
MANITOWOC      MOCLDY    17  12  80 N10       30.07R WCI   5
SHEBOYGAN      MOCLDY    19  11  70 N9        30.04R WCI   8
$$

LMZ563-521-522-541>543-260200-
LAKESHORE

STATION/POSITION TIME  TEMP    WIND        PRES    VSBY  WAVE
                       AIR SEA DIR/SP/G                  HT/PER
                 (UTC) (F)     (DEG/KT/KT) (MB)    (MI)  (FT/S)
SHEBOYGAN LKSHOR 0100   24      30/ 20/ 24 1018.6R
KEWAUNEE LKSHORE 0100   17     340/  6/ 10 1017.5R
NORTHPORT PIER   0100   18      50/  5/  7 1018.6S
SISTER BAY LKSHO 0100   10        CALM       N/A
CHAMBERS ISLAND  0100    9        CALM     1018.6S
MENOMINEE LKSHOR 0100   16      40/  3/  4 1019.1S
$$



USA.gov is the U.S. government's official web portal to all federal, state and local government web resources and services.